• în România
  • Lista ţărilor
  • Pe 7 zile
  • Temperatura apei
  • Hartă satelitară
  • Meteo pe hartă
  • Widget-uri
  • user-avatar
    Intrare

    Meteo pe oră la Naftalan

    Astăzi, 23 August, Miercuri

    Timp Temperatura Precipitaţii Vânt Presiune Umiditate
    00:00 +28°C° 0 mm 2 m/s 758 mmHg 59%
    01:00 +28°C° 0 mm 2 m/s 758 mmHg 58%
    02:00 +28°C° 0 mm 2 m/s 758 mmHg 57%
    03:00 +27°C° 0 mm 2 m/s 758 mmHg 56%
    04:00 +27°C° 0 mm 2 m/s 758 mmHg 54%
    05:00 +28°C° 0 mm 2 m/s 758 mmHg 51%
    06:00 +28°C° 0 mm 2 m/s 758 mmHg 48%
    07:00 +30°C° 0 mm 3 m/s 758 mmHg 42%
    08:00 +34°C° 0 mm 4 m/s 758 mmHg 36%
    09:00 +36°C° 0 mm 5 m/s 758 mmHg 30%
    10:00 +37°C° 0 mm 5 m/s 758 mmHg 28%
    11:00 +39°C° 0 mm 6 m/s 758 mmHg 27%
    12:00 +40°C° 0 mm 6 m/s 758 mmHg 26%
    13:00 +40°C° 0 mm 6 m/s 758 mmHg 26%
    14:00 +40°C° 0 mm 6 m/s 758 mmHg 27%
    15:00 +39°C° 0 mm 6 m/s 758 mmHg 27%
    16:00 +38°C° 0 mm 6 m/s 758 mmHg 31%
    17:00 +35°C° 0 mm 5 m/s 758 mmHg 34%
    18:00 +34°C° 0 mm 4 m/s 758 mmHg 38%
    19:00 +33°C° 0 mm 4 m/s 758 mmHg 44%
    20:00 +30°C° 0 mm 3 m/s 758 mmHg 50%
    21:00 +29°C° 0 mm 2 m/s 759 mmHg 56%
    22:00 +29°C° 0 mm 3 m/s 759 mmHg 55%
    23:00 +29°C° 0 mm 3 m/s 759 mmHg 53%

    Mâine, 24 August, Joi

    Timp Temperatura Precipitaţii Vânt Presiune Umiditate
    00:00 +29°C° 0 mm 3 m/s 759 mmHg 51%
    01:00 +28°C° 0 mm 3 m/s 760 mmHg 50%
    02:00 +28°C° 0 mm 3 m/s 760 mmHg 49%
    03:00 +28°C° 0 mm 3 m/s 760 mmHg 47%
    04:00 +28°C° 0 mm 3 m/s 760 mmHg 48%
    05:00 +28°C° 0 mm 4 m/s 761 mmHg 50%
    06:00 +28°C° 0 mm 4 m/s 761 mmHg 51%
    07:00 +30°C° 0 mm 4 m/s 762 mmHg 44%
    08:00 +34°C° 0 mm 4 m/s 762 mmHg 37%
    09:00 +36°C° 0 mm 4 m/s 762 mmHg 30%
    10:00 +37°C° 0 mm 5 m/s 762 mmHg 27%
    11:00 +39°C° 0 mm 6 m/s 762 mmHg 23%
    12:00 +40°C° 0 mm 6 m/s 762 mmHg 19%
    13:00 +40°C° 0 mm 6 m/s 762 mmHg 19%
    14:00 +40°C° 0 mm 6 m/s 761 mmHg 19%
    15:00 +39°C° 0 mm 6 m/s 761 mmHg 19%
    16:00 +38°C° 0 mm 6 m/s 761 mmHg 23%
    17:00 +35°C° 0 mm 5 m/s 761 mmHg 27%
    18:00 +33°C° 0 mm 5 m/s 761 mmHg 30%
    19:00 +32°C° 0 mm 4 m/s 762 mmHg 39%
    20:00 +30°C° 0 mm 3 m/s 762 mmHg 47%
    21:00 +28°C° 0 mm 3 m/s 762 mmHg 55%
    22:00 +28°C° 0 mm 3 m/s 762 mmHg 55%
    23:00 +27°C° 0 mm 3 m/s 762 mmHg 55%

    Poimâine, 25 August, Vineri

    Timp Temperatura Precipitaţii Vânt Presiune Umiditate
    00:00 +27°C° 0 mm 3 m/s 762 mmHg 55%
    01:00 +27°C° 0 mm 3 m/s 762 mmHg 53%
    02:00 +26°C° 0 mm 3 m/s 762 mmHg 50%
    03:00 +26°C° 0 mm 3 m/s 762 mmHg 48%
    04:00 +26°C° 0 mm 3 m/s 762 mmHg 46%
    05:00 +26°C° 0 mm 3 m/s 763 mmHg 45%
    06:00 +26°C° 0 mm 3 m/s 763 mmHg 43%
    07:00 +29°C° 0 mm 3 m/s 763 mmHg 36%
    08:00 +31°C° 0 mm 3 m/s 763 mmHg 28%
    09:00 +34°C° 0 mm 3 m/s 763 mmHg 20%
    10:00 +36°C° 0 mm 4 m/s 763 mmHg 18%
    11:00 +37°C° 0 mm 5 m/s 763 mmHg 17%
    12:00 +40°C° 0 mm 5 m/s 763 mmHg 15%
    13:00 +39°C° 0 mm 6 m/s 762 mmHg 18%
    14:00 +39°C° 0 mm 7 m/s 762 mmHg 21%
    15:00 +39°C° 0 mm 7 m/s 762 mmHg 23%
    16:00 +36°C° 0 mm 7 m/s 762 mmHg 29%
    17:00 +35°C° 0 mm 7 m/s 762 mmHg 34%
    18:00 +33°C° 0 mm 6 m/s 762 mmHg 40%
    19:00 +32°C° 0 mm 6 m/s 762 mmHg 44%
    20:00 +30°C° 0 mm 6 m/s 763 mmHg 49%
    21:00 +28°C° 0 mm 5 m/s 763 mmHg 53%
    22:00 +28°C° 0 mm 5 m/s 763 mmHg 53%
    23:00 +28°C° 0 mm 5 m/s 763 mmHg 53%

    26 August, Sâmbătă

    Timp Temperatura Precipitaţii Vânt Presiune Umiditate
    00:00 +27°C° 0 mm 5 m/s 763 mmHg 53%
    01:00 +27°C° 0 mm 5 m/s 763 mmHg 54%
    02:00 +26°C° 0 mm 5 m/s 763 mmHg 56%
    03:00 +26°C° 0 mm 5 m/s 763 mmHg 58%
    04:00 +26°C° 0 mm 5 m/s 763 mmHg 57%
    05:00 +26°C° 0 mm 5 m/s 763 mmHg 57%
    06:00 +26°C° 0 mm 5 m/s 764 mmHg 57%
    07:00 +28°C° 0 mm 5 m/s 764 mmHg 48%
    08:00 +32°C° 0 mm 5 m/s 764 mmHg 38%
    09:00 +34°C° 0 mm 5 m/s 764 mmHg 29%
    10:00 +35°C° 0 mm 6 m/s 763 mmHg 25%
    11:00 +38°C° 0 mm 6 m/s 763 mmHg 22%
    12:00 +39°C° 0 mm 7 m/s 763 mmHg 18%
    13:00 +39°C° 0 mm 7 m/s 762 mmHg 19%
    14:00 +39°C° 0 mm 8 m/s 762 mmHg 20%
    15:00 +38°C° 0 mm 8 m/s 762 mmHg 22%
    16:00 +37°C° 0 mm 8 m/s 762 mmHg 27%
    17:00 +34°C° 0 mm 7 m/s 762 mmHg 33%
    18:00 +32°C° 0 mm 7 m/s 762 mmHg 38%
    19:00 +30°C° 0 mm 7 m/s 762 mmHg 45%
    20:00 +29°C° 0 mm 6 m/s 763 mmHg 51%
    21:00 +28°C° 0 mm 6 m/s 763 mmHg 58%
    22:00 +27°C° 0 mm 5 m/s 763 mmHg 60%
    23:00 +27°C° 0 mm 5 m/s 763 mmHg 62%

    27 August, Duminică

    Timp Temperatura Precipitaţii Vânt Presiune Umiditate
    00:00 +26°C° 0 mm 5 m/s 762 mmHg 64%
    01:00 +26°C° 0 mm 5 m/s 762 mmHg 65%
    02:00 +26°C° 0 mm 5 m/s 762 mmHg 67%
    03:00 +25°C° 0 mm 5 m/s 762 mmHg 68%
    04:00 +25°C° 0 mm 5 m/s 762 mmHg 67%
    05:00 +26°C° 0 mm 5 m/s 763 mmHg 66%
    06:00 +26°C° 0 mm 5 m/s 763 mmHg 66%
    07:00 +28°C° 0 mm 4 m/s 763 mmHg 57%
    08:00 +29°C° 0 mm 4 m/s 763 mmHg 48%
    09:00 +32°C° 0 mm 4 m/s 763 mmHg 40%
    10:00 +34°C° 0 mm 5 m/s 763 mmHg 35%
    11:00 +35°C° 0 mm 5 m/s 762 mmHg 30%
    12:00 +38°C° 0 mm 6 m/s 762 mmHg 26%
    13:00 +38°C° 0 mm 6 m/s 762 mmHg 27%
    14:00 +36°C° 0 mm 7 m/s 761 mmHg 28%
    15:00 +36°C° 0 mm 7 m/s 761 mmHg 29%
    16:00 +35°C° 0 mm 6 m/s 761 mmHg 33%
    17:00 +33°C° 0 mm 6 m/s 761 mmHg 37%
    18:00 +32°C° 0 mm 5 m/s 761 mmHg 41%
    19:00 +30°C° 0 mm 4 m/s 762 mmHg 47%
    20:00 +28°C° 0 mm 4 m/s 762 mmHg 52%
    21:00 +27°C° 0 mm 3 m/s 762 mmHg 58%
    22:00 +27°C° 0 mm 3 m/s 762 mmHg 59%
    23:00 +26°C° 0 mm 3 m/s 762 mmHg 61%

    28 August, Luni

    Timp Temperatura Precipitaţii Vânt Presiune Umiditate
    00:00 +26°C° 0 mm 3 m/s 762 mmHg 62%
    01:00 +25°C° 0 mm 3 m/s 761 mmHg 62%
    02:00 +25°C° 0 mm 3 m/s 761 mmHg 63%
    03:00 +25°C° 0 mm 3 m/s 761 mmHg 63%
    04:00 +25°C° 0 mm 3 m/s 761 mmHg 62%
    05:00 +25°C° 0 mm 3 m/s 762 mmHg 60%
    06:00 +25°C° 0 mm 3 m/s 762 mmHg 59%
    07:00 +27°C° 0 mm 3 m/s 762 mmHg 50%
    08:00 +30°C° 0 mm 3 m/s 762 mmHg 42%
    09:00 +32°C° 0 mm 2 m/s 762 mmHg 34%
    10:00 +34°C° 0 mm 3 m/s 761 mmHg 30%
    11:00 +36°C° 0 mm 3 m/s 761 mmHg 26%
    12:00 +37°C° 0 mm 3 m/s 760 mmHg 22%
    13:00 +37°C° 0 mm 4 m/s 760 mmHg 23%
    14:00 +37°C° 0 mm 4 m/s 759 mmHg 24%
    15:00 +37°C° 0 mm 5 m/s 759 mmHg 24%
    16:00 +36°C° 0 mm 4 m/s 759 mmHg 30%
    17:00 +34°C° 0 mm 4 m/s 759 mmHg 36%
    18:00 +32°C° 0 mm 4 m/s 759 mmHg 42%
    19:00 +30°C° 0 mm 3 m/s 759 mmHg 49%
    20:00 +29°C° 0 mm 2 m/s 759 mmHg 55%
    21:00 +27°C° 0 mm 2 m/s 759 mmHg 62%
    22:00 +27°C° 0 mm 2 m/s 759 mmHg 64%
    23:00 +26°C° 0 mm 1 m/s 759 mmHg 66%
    Arată mai mult